Location: Gleizolles
(44.4833°N, 6.7667°E)
Time: 01:38:54
(UTC+00:00)

Vanguard 2 Rocket - Pass Details

Date: 15 June 2024
Orbit: 555 x 3302 km, 32.9° (Epoch: 24 July)

Event Time Altitude Azimuth Distance (km) Brightness Sun altitude
Rises 05:32:20 0° 249° (WSW) 7,182 10.8 15.9°
Reaches altitude 10° 05:37:41 10° 245° (WSW) 5,969 10.5 16.8°
Maximum altitude 05:54:01 49° 178° (S) 2,758 9.5 19.6°
Drops below altitude 10° 06:04:05 10° 108° (ESE) 3,798 11.3 21.4°
Sets 06:06:42 0° 102° (ESE) 4,477 11.6 21.8°
